User: anonymous   Login
Location: Deuil
(48.9767°N, 2.3272°E)
Time: 19:49:51
(UTC+00:00)
Language:

CZ-4 R/B - Orbit

View from above orbital plane
View from above orbital plane
View from above satellite
View from above satellite

Ground track
Ground track

The orbit data is extracted from the following two-line orbital elements,

1 29507U 06046C   22017.06162971  .00000772  00000-0  63575-4 0  9999
2 29507  97.7513  47.7078 0046557  17.6897 342.5935 15.01290804832201
Epoch (UTC): 17 January 2022 01:28:44
Eccentricity: 0.0046557
inclination: 97.7513°
perigee height: 530 km
apogee height: 595 km
right ascension of ascending node: 47.7078°
argument of perigee: 17.6897°
revolutions per day: 15.01290804
mean anomaly at epoch: 342.5935°
orbit number at epoch: 83220

The dashed part of the orbit path shows where the satellite is in the earth's shadow,  

DLR